Location: *
(55.5817°S, 142.4781°W)
Time: 06:41:26
(UTC+00:00)

CZ-2D R/B - Pass Details

Date: 29 April 2025
Orbit: 433 x 442 km, 97.4° (Epoch: 23 May)

Event Time Altitude Azimuth Distance (km) Brightness Sun altitude
Rises 14:49:53 0° 1° (N) 2,448 6.7 -17.3°
Reaches altitude 10° 14:51:57 10° 354° (N) 1,587 5.6 -17.0°
Maximum altitude 14:55:14 45° 280° (W) 638 3.2 -16.6°
Enters shadow 14:56:19 33° 231° (SW) 801 3.7 -16.4°
